Date String (YYYY-MM-DD hh:mm:ss) UTC,Instrument flags,absolute air pressure of the measurement (hPa),sample flow rate (lpm),inlet stack bypass flow (lpm),air temperature of the measurement (°C),ambient temperature measured by the external sensor (°C),aerosol sample conditioner tube jacket temperature (°C),OPC LED temperature (°C),internal box temperature (°C),relative humidity of the measurement (%),span deviation,mass concentration of particles derived from Lorenz-Mie calculation of OPC scattering (μg/m³),mass concentration of particles derived from Lorenz-Mie calculation of OPC scattering (μg/m³),mass concentration of particles derived from Lorenz-Mie calculation of OPC scattering (μg/m³)
DateTimeUTC,F1_M11,P_M11,Q1_M11,Q2_M11,T1_M11,T2_M11,T3_M11,T4_M11,T5_M11,U1_M11,ZSPAN_M11,X2_M11,X0_M11,X1_M11
2023-11-26 02:00:00,SystemResetWarning,0829.0,5.00,000.00,018.8,018.2,000.0,027.2,020.0,13.2,0001.9,0009.44,0011.88,0008.99
2023-11-26 02:01:00,SystemResetWarning,0829.0,5.00,000.00,018.8,018.1,000.0,027.2,020.0,13.3,0001.9,0009.44,0011.83,0008.99
2023-11-26 02:02:00,SystemResetWarning,0829.0,4.99,000.00,018.8,018.1,000.0,027.2,020.0,13.3,0001.7,0009.43,0011.78,0008.99
2023-11-26 02:03:00,SystemResetWarning,0829.1,5.01,000.00,018.8,018.0,000.0,027.2,020.0,13.3,0001.6,0009.43,0011.80,0008.98
2023-11-26 02:04:00,SystemResetWarning,0829.1,5.00,000.00,018.8,018.0,000.0,027.2,020.0,13.4,0001.3,0009.43,0011.82,0008.98
2023-11-26 02:05:00,SystemResetWarning,0829.1,5.00,000.00,018.8,017.9,000.0,027.2,020.0,13.4,0001.3,0009.41,0011.78,0008.97
2023-11-26 02:06:00,SystemResetWarning,0829.1,5.00,000.00,018.8,017.9,000.0,027.2,020.0,13.4,0001.3,0009.40,0011.72,0008.97
2023-11-26 02:07:00,SystemResetWarning,0829.1,4.99,000.00,018.8,017.9,000.0,027.2,020.0,13.4,0001.2,0009.39,0011.65,0008.98
2023-11-26 02:08:00,SystemResetWarning,0829.1,4.99,000.00,018.8,017.8,000.0,027.2,020.0,13.5,0001.8,0009.38,0011.60,0009.00
2023-11-26 02:09:00,SystemResetWarning,0829.1,5.00,000.00,018.8,017.8,000.0,027.2,020.0,13.5,0001.7,0009.41,0011.66,0009.02
2023-11-26 02:10:00,SystemResetWarning,0829.1,5.01,000.00,018.7,017.8,000.0,027.2,020.0,13.4,0001.8,0009.43,0011.69,0009.04
2023-11-26 02:11:00,SystemResetWarning,0829.1,5.01,000.00,018.7,017.8,000.0,027.2,020.0,13.4,0001.9,0009.37,0011.68,0008.97
2023-11-26 02:12:00,SystemResetWarning,0829.2,5.00,000.00,018.7,017.8,000.0,027.2,020.0,13.4,0001.8,0009.27,0011.63,0008.87
2023-11-26 02:13:00,SystemResetWarning,0829.2,4.99,000.00,018.7,017.7,000.0,027.2,020.0,13.4,0002.0,0009.13,0011.51,0008.74
2023-11-26 02:14:00,SystemResetWarning,0829.2,4.99,000.00,018.7,017.7,000.0,027.2,020.0,13.4,0002.2,0008.96,0011.29,0008.61
2023-11-26 02:15:00,SystemResetWarning,0829.2,5.01,000.00,018.7,017.7,000.0,027.2,020.0,13.3,0002.2,0008.79,0011.13,0008.45
2023-11-26 02:16:00,SystemResetWarning,0829.2,5.02,000.00,018.7,017.7,000.0,027.2,020.0,13.3,0002.3,0008.60,0010.93,0008.29
2023-11-26 02:17:00,SystemResetWarning,0829.2,4.99,000.00,018.7,017.7,000.0,027.2,020.0,13.3,0002.3,0008.44,0010.75,0008.15
2023-11-26 02:18:00,SystemResetWarning,0829.2,4.99,000.00,018.7,017.7,000.0,027.2,020.0,13.3,0002.6,0008.29,0010.61,0008.00
2023-11-26 02:19:00,SystemResetWarning,0829.2,5.00,000.00,018.7,017.7,000.0,027.2,020.0,13.3,0002.1,0008.10,0010.45,0007.80
2023-11-26 02:20:00,SystemResetWarning,0829.1,5.00,000.00,018.7,017.7,000.0,027.2,020.1,13.2,0002.4,0007.93,0010.30,0007.63
2023-11-26 02:21:00,SystemResetWarning,0829.2,5.01,000.00,018.8,018.1,000.0,027.2,020.5,13.2,0002.8,0007.73,0010.06,0007.45
2023-11-26 02:22:00,SystemResetWarning,0829.2,5.00,000.00,019.0,018.9,000.0,027.2,020.8,13.1,0002.8,0007.56,0009.81,0007.31
2023-11-26 02:23:00,SystemResetWarning,0829.2,4.98,000.00,019.0,018.9,000.0,027.2,020.6,13.1,0003.3,0007.46,0009.64,0007.22
2023-11-26 02:24:00,SystemResetWarning,0829.2,5.01,000.00,019.0,018.8,000.0,027.2,020.3,13.1,0003.1,0007.42,0009.67,0007.16
2023-11-26 02:25:00,SystemResetWarning,0829.2,5.00,000.00,019.0,018.7,000.0,027.2,020.2,13.0,0003.0,0007.37,0009.63,0007.10
2023-11-26 02:26:00,SystemResetWarning,0829.2,5.00,000.00,018.9,018.5,000.0,027.2,020.1,13.1,0003.2,0007.29,0009.47,0007.03
2023-11-26 02:27:00,SystemResetWarning,0829.2,5.00,000.00,018.9,018.4,000.0,027.2,020.0,13.1,0003.3,0007.21,0009.36,0006.97
2023-11-26 02:28:00,SystemResetWarning,0829.1,5.01,000.00,018.9,018.3,000.0,027.2,020.0,13.1,0003.3,0007.11,0009.24,0006.88
2023-11-26 02:29:00,SystemResetWarning,0829.2,5.01,000.00,018.8,018.2,000.0,027.2,020.0,13.1,0002.8,0007.02,0009.15,0006.80
2023-11-26 02:30:00,SystemResetWarning,0829.2,4.99,000.00,018.8,018.1,000.0,027.2,020.0,13.1,0002.3,0006.93,0009.03,0006.72
2023-11-26 02:31:00,SystemResetWarning,0829.1,4.99,000.00,018.8,018.1,000.0,027.2,020.0,13.1,0002.0,0006.82,0008.88,0006.63
2023-11-26 02:32:00,SystemResetWarning,0829.1,5.00,000.00,018.8,018.0,000.0,027.2,020.0,13.1,0001.6,0006.73,0008.78,0006.55
2023-11-26 02:33:00,SystemResetWarning,0829.1,5.01,000.00,018.8,017.9,000.0,027.2,020.0,13.2,0001.4,0006.68,0008.75,0006.49
2023-11-26 02:34:00,SystemResetWarning,0829.2,5.00,000.00,018.8,017.9,000.0,027.2,020.0,13.3,0000.9,0006.64,0008.73,0006.42
2023-11-26 02:35:00,SystemResetWarning,0829.1,4.99,000.00,018.7,017.8,000.0,027.2,020.0,13.2,0001.1,0006.55,0008.55,0006.35
2023-11-26 02:36:00,SystemResetWarning,0829.2,5.00,000.00,018.7,017.8,000.0,027.2,020.0,13.2,0001.4,0006.46,0008.45,0006.28
2023-11-26 02:37:00,SystemResetWarning,0829.1,5.00,000.00,018.7,017.8,000.0,027.2,020.0,13.2,0001.3,0006.40,0008.38,0006.22
2023-11-26 02:38:00,SystemResetWarning,0829.2,5.00,000.00,018.7,017.7,000.0,027.2,020.0,13.1,0001.2,0006.34,0008.33,0006.16
2023-11-26 02:39:00,SystemResetWarning,0829.2,5.00,000.00,018.7,017.7,000.0,027.2,020.0,13.0,0001.3,0006.39,0008.42,0006.17
2023-11-26 02:40:00,SystemResetWarning,0829.2,5.01,000.00,018.7,017.7,000.0,027.2,020.0,13.0,0001.9,0006.42,0008.51,0006.19
2023-11-26 02:41:00,SystemResetWarning,0829.2,5.00,000.00,018.8,018.0,000.0,027.2,020.4,12.9,0002.5,0006.44,0008.57,0006.18
2023-11-26 02:42:00,SystemResetWarning,0829.3,5.00,000.00,018.9,018.8,000.0,027.2,020.8,13.0,0002.9,0006.44,0008.57,0006.18
2023-11-26 02:43:00,SystemResetWarning,0829.3,4.99,000.00,019.0,019.0,000.0,027.2,020.6,12.9,0003.0,0006.43,0008.55,0006.17
2023-11-26 02:44:00,SystemResetWarning,0829.3,5.00,000.00,019.0,018.8,000.0,027.2,020.3,13.0,0003.0,0006.39,0008.51,0006.15
2023-11-26 02:45:00,SystemResetWarning,0829.3,4.99,000.00,018.9,018.6,000.0,027.2,020.0,13.1,0003.2,0006.34,0008.40,0006.13
2023-11-26 02:46:00,SystemResetWarning,0829.2,5.01,000.00,018.9,018.5,000.0,027.2,020.0,13.2,0003.3,0006.35,0008.45,0006.13
2023-11-26 02:47:00,SystemResetWarning,0829.3,5.01,000.00,018.8,018.3,000.0,027.2,020.0,13.2,0003.2,0006.39,0008.51,0006.16
2023-11-26 02:48:00,SystemResetWarning,0829.3,5.00,000.00,018.8,018.2,000.0,027.2,020.0,13.3,0003.0,0006.45,0008.60,0006.22
2023-11-26 02:49:00,SystemResetWarning,0829.4,5.00,000.00,018.8,018.1,000.0,027.2,020.0,13.3,0003.2,0006.50,0008.64,0006.27
2023-11-26 02:50:00,SystemResetWarning,0829.3,5.01,000.00,018.8,018.0,000.0,027.2,020.0,13.3,0003.0,0006.46,0008.58,0006.24
2023-11-26 02:51:00,SystemResetWarning,0829.3,5.00,000.00,018.8,017.9,000.0,027.2,020.0,13.4,0002.9,0006.39,0008.46,0006.19
2023-11-26 02:52:00,SystemResetWarning,0829.3,4.98,000.00,018.8,017.8,000.0,027.2,020.0,13.5,0002.5,0006.36,0008.42,0006.19
2023-11-26 02:53:00,SystemResetWarning,0829.3,4.99,000.00,018.8,017.8,000.0,027.2,020.0,13.6,0002.1,0006.35,0008.40,0006.18
2023-11-26 02:54:00,SystemResetWarning,0829.3,5.01,000.00,018.7,017.7,000.0,027.2,020.0,13.5,0001.9,0006.34,0008.41,0006.18
2023-11-26 02:55:00,SystemResetWarning,0829.3,5.01,000.00,018.7,017.7,000.0,027.2,020.0,13.6,0002.5,0006.34,0008.40,0006.17
2023-11-26 02:56:00,SystemResetWarning,0829.3,5.01,000.00,018.7,017.8,000.0,027.2,020.2,13.6,0002.5,0006.36,0008.47,0006.19
2023-11-26 02:57:00,SystemResetWarning,0829.4,5.00,000.00,018.9,018.4,000.0,027.2,020.6,13.6,0002.6,0006.37,0008.48,0006.20
2023-11-26 02:58:00,SystemResetWarning,0829.3,5.00,000.00,019.0,019.0,000.0,027.2,020.8,13.5,0002.6,0006.37,0008.51,0006.19
2023-11-26 02:59:00,SystemResetWarning,0829.2,4.99,000.00,019.0,018.9,000.0,027.2,020.4,13.4,0002.6,0006.38,0008.57,0006.18
